sat.trackr.live / text

‹ back to catalog

STARLINK-31802

NORAD 59636 · 2024-082F

PAYLOAD ACTIVE UNKNOWN

§ Identity

Operator
Country
US
Launch date
2024-05-03
Launch site
AFETR
Launch vehicle
Mass (kg)
RCS (m²)

Purposes: comms

External: N2YO · Heavens-Above · Gunter

§ Orbital elements

Epoch: 2026-09-21T06:57:33.832224Z

Period
94.27 min
Inclination
43.0043°
Eccentricity
0.0001756
Mean motion
15.27577519 rev/d
Perigee alt
481.9 km
Apogee alt
484.3 km
Semi-major
6,861.2 km
B*
-2.1320e-7
RAAN
115.4037°
Arg perigee
269.0464°
Mean anomaly
91.0186°
Rev number
13,472

§ Raw data

STARLINK-318021 59636U 24082F   26264.28997491 -.00000268  00000+0 -21320-6 0  99952 59636  43.0043 115.4037 0001756 269.0464  91.0186 15.27577519134727

JSON: /api/v1/satellites/59636 · /tle

For live sub-satellite position, see the globe view (requires WebGL).

§ Visibility from observer

Set your observer location to see the next 7 days of passes ≥ 10°. The values pass through the URL so the page stays shareable.

No JS? Fill the form by hand. The geolocation button needs JavaScript.